Location: Unspecified
(0.0000°N, 0.0000°E)
Time: 23:15:20
(UTC+00:00)

Hubble Space Telescope - Pass Details

Date: 29 January 2021
Orbit: 536 x 539 km, 28.5° (Epoch: 25 February)

Event Time Altitude Azimuth Distance (km) Brightness Sun altitude
Rises 19:46:47 0° 316° (NW) 2,666 4.6 -22.2°
Reaches altitude 10° 19:49:14 10° 327° (NNW) 1,778 3.6 -22.8°
Enters shadow 19:50:40 18° 341° (NNW) 1,328 2.7 -23.1°
